Wind_Speed
27 27 27 27 26 25 24 24 24 23 23 23 23 22 21 21 20 20 19 19 18 18 18 18 18 19 19 20 20 20 21 22 22 23 24 25 26 26 27 28 29 30 30 31 31 32 32 31 31 30 31 32
28 28 27 26 26 25 24 24 24 23 23 23 22 21 21 20 19 19 18 17 17 16 16 16 17 17 17 18 19 20 20 21 22 23 24 25 26 26 26 27 28 29 30 31 32 32 32 32 32 32 31 32
29 28 27 26 25 25 24 24 24 23 23 22 21 20 20 19 18 18 17 16 16 16 15 15 16 16 17 17 18 19 20 22 23 24 24 25 26 27 27 27 28 28 29 30 31 31 32 33 33 33 32 32
29 28 27 26 25 24 24 24 23 23 22 21 20 19 19 18 18 18 17 16 16 16 15 16 16 17 17 18 19 19 21 22 23 24 25 26 27 27 28 29 29 29 29 29 30 31 31 32 32 33 33 33
30 28 27 25 25 24 24 23 23 22 21 20 19 19 19 19 18 18 17 17 16 16 16 17 17 18 18 19 20 21 22 23 24 25 25 26 27 28 28 29 30 31 31 30 30 30 31 31 32 32 33 33
30 29 27 25 25 24 24 23 23 22 21 20 19 19 19 19 19 18 18 17 17 17 17 18 19 19 20 21 22 23 24 25 26 27 27 28 28 28 29 30 30 31 32 32 31 31 31 31 31 32 32 33
31 29 27 25 25 24 24 23 23 22 21 20 20 20 20 20 19 19 18 18 18 18 19 20 21 21 22 24 25 26 27 28 29 30 30 30 30 30 30 30 31 32 32 33 33 32 32 32 32 32 32 32
31 28 26 25 24 24 23 23 22 22 21 21 21 21 21 20 20 19 19 19 20 20 21 22 23 24 25 26 27 28 30 31 32 32 33 33 33 33 32 32 32 32 33 33 33 33 33 32 32 32 32 32
29 27 26 25 24 23 22 22 21 21 21 21 22 22 22 21 21 21 21 22 22 23 24 24 25 26 27 28 29 30 31 32 32 33 34 34 35 35 35 34 34 34 34 34 34 34 34 33 33 32 33 33
28 27 26 25 23 22 21 21 21 21 22 22 23 23 23 23 23 23 24 24 25 26 26 27 27 28 29 30 30 31 32 32 32 33 34 34 35 36 36 36 36 36 35 35 35 35 35 35 34 33 33 33
27 26 25 24 23 22 22 22 22 22 23 23 24 24 24 24 25 25 26 27 27 28 28 28 29 29 30 30 31 32 33 33 34 34 35 35 36 37 37 37 38 37 37 36 36 37 37 36 35 34 34 33
27 27 26 25 24 23 23 23 23 23 24 24 25 25 25 26 27 27 28 29 29 29 30 30 30 31 31 33 34 35 35 36 37 37 37 38 38 38 38 38 38 38 38 38 38 37 38 38 37 37 36 35
28 28 27 26 24 23 23 23 23 24 24 25 26 27 27 28 29 29 30 30 31 31 31 31 32 33 34 35 37 38 39 40 40 40 40 40 40 40 40 39 39 39 39 39 39 39 39 39 39 38 38 37
28 27 26 25 24 23 23 23 24 24 25 26 27 28 29 29 30 31 31 32 32 32 32 33 34 35 35 36 37 38 40 41 41 41 41 41 41 41 40 40 40 40 39 39 40 39 39 39 39 39 39 39
26 25 25 24 24 24 24 24 25 25 26 27 28 29 30 31 32 32 33 33 34 34 34 35 36 37 37 37 38 39 40 40 41 41 41 41 41 41 40 40 40 40 40 39 40 40 40 40 39 39 39 39
25 25 24 24 24 25 25 25 26 26 27 28 29 29 31 32 33 34 34 35 35 35 36 37 38 38 38 39 41 42 42 41 41 41 40 40 40 40 40 39 39 40 40 39 39 39 40 39 39 39 39 38
24 24 24 25 25 25 25 26 26 27 28 29 29 30 32 33 34 35 35 36 37 37 38 39 39 39 40 42 44 44 44 43 42 41 40 40 40 39 39 39 38 39 39 39 38 39 39 39 39 39 39 38
24 24 24 24 24 25 25 26 27 27 28 29 30 31 32 33 34 35 36 37 38 39 40 40 41 42 43 44 45 45 45 45 43 42 41 40 39 39 39 38 38 38 38 38 38 38 38 38 38 39 39 38
24 24 24 24 25 25 26 26 27 28 29 30 31 32 33 34 35 36 37 38 40 41 42 43 43 44 45 45 46 46 46 45 44 42 41 40 39 39 38 38 38 38 38 38 38 38 38 38 39 39 38 38
25 25 25 25 25 26 26 27 28 29 30 31 32 33 34 36 36 38 39 40 42 43 44 45 45 45 45 46 46 46 46 45 44 43 41 40 40 40 39 39 38 38 38 38 38 38 38 38 39 39 39 39
26 25 25 26 26 26 27 28 29 30 31 32 33 34 35 37 38 40 41 43 44 45 46 46 46 45 45 46 46 46 45 45 45 44 43 42 42 41 41 40 39 39 39 40 39 39 39 39 39 39 39 39
26 26 26 26 27 28 28 29 30 31 32 33 34 35 37 38 40 42 43 45 46 47 46 46 46 45 45 46 46 46 46 46 47 46 46 45 44 44 43 42 41 41 41 41 40 40 40 40 41 40 40 40
26 27 27 28 28 29 30 30 31 32 33 34 36 37 39 40 42 44 45 47 47 48 47 46 46 46 46 47 47 48 48 48 48 48 47 47 45 45 45 44 43 43 43 42 42 41 41 42 42 41 41 41
28 28 29 29 29 30 31 32 33 34 36 37 38 40 41 43 45 46 47 48 48 48 48 48 48 48 49 49 50 50 50 49 48 48 47 46 46 45 44 44 43 44 44 44 43 43 42 42 43 43 43 43
30 30 31 31 32 32 33 35 36 37 38 39 40 42 44 46 47 48 49 48 48 48 49 49 50 50 51 51 51 51 50 48 47 46 45 45 45 44 44 43 43 44 45 45 44 44 43 43 43 44 44 44
32 33 33 34 35 35 36 37 39 40 41 42 43 45 47 48 48 48 48 48 49 49 50 51 51 51 51 50 50 49 47 46 45 43 43 43 44 44 44 43 42 43 45 45 45 45 45 44 43 44 44 44
33 34 35 36 37 38 39 40 41 42 44 45 46 48 48 49 48 48 48 48 49 49 50 50 50 49 48 47 46 46 45 44 43 42 42 43 43 43 44 43 42 43 45 46 46 47 47 46 45 44 44 44
34 35 36 37 38 40 41 42 43 44 45 47 47 48 48 48 48 49 49 49 49 48 48 47 47 46 45 45 44 44 44 43 42 42 42 42 43 44 44 43 43 43 44 46 46 47 48 48 48 47 46 46
36 37 38 39 40 41 42 43 44 45 46 46 47 47 47 48 48 49 49 49 48 47 46 45 45 44 44 43 43 43 43 43 42 41 41 42 43 44 44 44 44 43 43 44 46 48 49 49 50 50 48 49
38 40 41 42 43 44 45 46 47 48 48 48 48 48 48 48 49 48 48 47 46 45 44 43 43 43 43 42 42 42 42 42 42 42 41 42 43 44 44 45 46 45 44 44 46 48 49 49 51 52 51 51
40 42 43 44 46 47 48 49 49 49 49 50 49 49 49 49 48 47 46 45 44 43 43 42 42 41 41 41 41 41 41 41 42 42 42 42 43 43 44 45 47 46 45 46 47 48 48 50 51 53 53 53
Wind_Direction
282 281 281 280 280 279 278 277 277 277 278 277 277 278 279 282 283 284 284 283 283 283 284 286 287 289 290 291 292 292 293 293 293 293 293 293 292 291 289 288 287 285 283 282 280 279 277 276 273 270 269 269
279 279 279 279 278 276 275 274 274 274 274 274 274 276 279 281 281 280 280 279 280 282 284 288 290 293 295 297 298 299 299 298 298 297 296 295 294 293 291 290 288 286 285 283 281 279 277 276 275 272 270 268
278 277 277 276 275 274 272 272 272 271 271 271 273 276 278 278 277 275 275 276 278 281 285 288 291 294 297 299 301 303 304 303 303 301 299 298 296 294 293 291 290 288 286 285 283 280 278 277 276 274 272 270
275 275 274 273 272 271 270 269 269 269 269 271 273 274 275 273 271 270 271 274 277 280 283 287 291 294 297 299 301 303 304 305 305 304 303 302 299 297 295 292 290 288 287 286 284 282 280 278 276 275 274 272
273 272 271 270 269 268 267 267 267 267 268 269 270 270 269 268 267 268 269 271 274 278 282 286 290 293 297 299 301 302 303 304 304 304 305 304 302 300 297 294 291 288 287 285 284 283 282 279 277 275 274 273
271 270 269 267 266 266 266 266 266 267 267 267 267 266 264 263 263 265 267 269 273 278 283 286 289 291 295 298 299 301 302 302 302 302 303 303 302 301 299 296 293 289 287 285 283 283 282 280 279 276 275 274
269 268 267 266 265 266 266 266 266 266 266 265 264 262 260 259 260 262 265 270 275 279 283 286 289 291 294 296 298 299 300 300 300 300 299 299 299 299 299 297 294 291 288 285 283 282 281 280 279 278 276 274
268 268 267 266 265 265 265 265 265 265 263 261 259 258 257 258 259 262 267 271 275 279 283 287 289 292 294 296 297 298 299 300 300 300 298 297 296 296 296 295 294 291 288 286 283 281 280 279 278 278 277 275
268 268 267 265 265 266 266 265 263 261 258 256 256 256 256 258 260 263 268 272 276 280 283 287 290 292 294 296 297 298 299 300 300 300 300 298 297 295 294 293 292 290 288 286 283 281 279 278 277 277 276 276
268 267 267 267 267 266 264 261 257 255 254 255 255 256 257 259 261 265 269 273 277 280 284 287 290 293 295 297 298 298 298 299 300 301 301 300 298 296 294 293 291 289 287 285 282 281 279 277 276 275 275 275
266 265 265 263 262 260 258 256 256 255 255 256 256 257 258 260 264 267 270 274 277 280 284 288 291 294 296 297 298 298 298 298 299 300 300 300 299 297 295 292 290 288 286 283 281 279 278 277 276 275 274 273
260 258 257 257 257 258 258 258 257 257 256 257 258 259 261 263 266 269 272 275 279 282 285 289 292 295 296 297 298 298 298 298 298 298 298 298 297 296 294 292 289 287 285 282 281 279 277 276 275 274 273 272
253 253 254 256 257 258 258 257 256 256 257 258 260 262 264 267 270 272 275 278 281 284 287 290 293 296 298 299 299 299 298 298 297 297 296 296 295 294 292 290 288 286 284 282 280 278 276 275 274 272 271 271
250 252 253 254 255 255 255 254 254 255 257 260 262 265 267 270 273 275 277 280 283 285 288 291 294 297 298 300 301 302 300 298 297 295 295 294 292 291 289 287 286 284 282 281 279 278 276 275 273 272 271 270
248 249 250 251 252 252 252 252 253 256 259 262 265 268 270 273 275 277 279 282 284 286 289 292 295 296 297 299 302 304 304 300 297 295 293 292 290 289 287 285 284 283 281 280 278 277 276 275 274 273 272 270
245 247 248 249 249 250 251 253 255 258 261 264 267 270 272 275 277 279 281 284 286 288 290 293 294 295 297 299 301 303 304 302 298 295 292 290 289 287 285 284 283 282 281 279 277 276 276 275 274 274 273 271
245 246 247 247 249 250 252 255 258 261 264 267 270 273 275 277 279 281 284 286 288 290 292 293 294 296 298 299 300 300 301 301 298 295 293 290 288 287 285 284 283 282 280 279 277 276 275 275 275 275 274 273
245 245 246 248 249 252 255 258 262 265 268 271 274 276 278 280 282 284 287 288 290 292 293 294 296 298 299 299 299 299 299 299 298 295 293 292 290 288 287 285 284 283 281 280 278 277 276 276 276 275 274 274
244 245 246 249 252 255 259 263 266 269 272 274 276 279 281 283 285 288 290 291 292 293 294 295 297 297 298 299 298 298 297 297 296 295 294 293 292 290 289 288 286 285 282 280 279 278 277 277 276 275 274 274
244 246 249 252 256 260 264 267 271 274 276 278 280 283 285 288 290 292 293 294 295 295 296 296 296 296 296 297 297 296 295 295 294 293 293 293 292 291 290 290 288 287 285 282 281 279 278 277 276 275 274 273
245 248 252 256 260 264 268 271 274 277 279 282 285 288 290 292 293 294 295 296 296 296 295 295 295 295 295 296 296 295 294 294 293 292 292 292 291 291 290 289 289 287 286 284 282 281 279 278 276 276 275 273
249 252 256 260 263 267 271 274 278 280 283 286 289 291 292 294 294 295 296 296 296 295 294 294 294 295 295 295 295 294 294 293 293 292 291 291 290 290 289 288 287 286 285 284 283 282 280 278 277 276 275 274
255 258 261 265 268 272 276 279 282 284 286 288 290 292 293 294 295 296 296 295 295 294 294 294 295 295 295 295 294 293 293 292 292 291 291 291 290 289 289 288 287 285 284 283 283 282 281 279 278 277 276 275
259 263 266 269 273 276 280 282 285 286 288 290 292 293 294 295 295 295 294 293 293 293 294 295 295 295 295 294 293 293 292 291 290 290 290 290 289 289 288 288 288 287 285 284 282 282 281 280 280 278 276 275
263 266 268 272 274 277 280 282 284 286 288 290 292 294 294 294 294 293 292 292 293 293 294 295 295 294 294 293 292 291 290 290 289 289 289 289 289 289 289 289 289 288 287 286 284 282 281 280 280 279 278 277
267 270 272 275 277 279 282 284 285 287 289 290 292 293 292 291 291 291 292 293 294 294 294 294 293 293 292 291 290 290 289 289 289 289 289 289 289 289 289 289 290 289 289 288 287 286 283 281 279 278 278 278
272 275 278 280 283 284 285 287 288 289 290 291 292 291 291 291 292 293 294 294 293 293 293 292 291 290 289 289 288 288 288 288 289 290 290 290 289 289 289 289 289 289 289 289 289 289 287 285 282 279 277 277
278 281 284 286 288 289 290 291 292 293 293 293 293 292 293 293 294 294 293 293 292 291 290 289 289 288 287 287 287 287 287 287 288 289 289 289 289 289 289 289 288 288 288 289 289 289 288 288 286 283 280 278
284 286 288 289 290 291 292 292 292 291 291 290 291 291 292 292 292 291 291 290 290 288 288 287 287 286 286 285 286 286 286 287 287 287 288 288 288 288 289 289 288 288 288 288 288 288 288 288 287 286 285 282
289 290 290 290 290 289 289 289 288 289 289 289 290 291 291 291 291 290 289 288 288 286 286 285 285 284 284 284 284 284 285 286 287 287 287 288 288 289 289 289 289 289 289 288 287 287 288 288 287 287 286 284
293 293 293 292 291 291 290 290 291 292 293 293 294 294 293 292 291 290 289 287 286 285 284 283 283 284 284 284 284 284 285 285 286 287 287 287 288 288 289 289 290 290 289 288 288 288 287 287 286 286 285 284
Height
3131 3131 3131 3131 3130 3130 3130 3130 3130 3130 3130 3130 3130 3130 3130 3130 3130 3130 3130 3129 3129 3129 3129 3129 3128 3128 3128 3128 3127 3127 3127 3127 3126 3126 3125 3125 3125 3124 3124 3124 3124 3123 3123 3123 3123 3124 3124 3125 3125 3126 3126 3125
3129 3129 3128 3128 3128 3128 3128 3128 3128 3128 3128 3128 3128 3128 3128 3128 3128 3128 3128 3127 3127 3127 3127 3127 3126 3126 3126 3125 3125 3125 3124 3124 3124 3123 3123 3123 3122 3122 3122 3122 3121 3121 3120 3120 3120 3120 3120 3121 3121 3122 3122 3122
3127 3126 3126 3126 3126 3126 3126 3126 3126 3126 3126 3126 3126 3126 3126 3126 3126 3126 3125 3125 3125 3125 3125 3124 3124 3124 3123 3123 3123 3122 3122 3121 3121 3121 3120 3120 3120 3119 3119 3119 3119 3118 3118 3117 3117 3117 3117 3117 3117 3117 3118 3118
3124 3124 3124 3124 3124 3124 3124 3124 3124 3124 3124 3124 3124 3124 3124 3124 3123 3123 3123 3123 3123 3122 3122 3122 3121 3121 3121 3121 3120 3120 3120 3119 3118 3118 3118 3117 3117 3116 3116 3116 3115 3115 3115 3115 3114 3114 3113 3113 3113 3113 3113 3114
3122 3122 3121 3121 3121 3121 3121 3121 3121 3121 3122 3122 3122 3122 3121 3121 3121 3121 3121 3121 3120 3120 3120 3119 3119 3119 3119 3118 3118 3118 3117 3117 3116 3116 3115 3115 3114 3114 3113 3112 3112 3112 3112 3112 3111 3111 3110 3110 3109 3109 3109 3109
3119 3119 3119 3119 3119 3119 3119 3119 3119 3119 3119 3119 3119 3119 3119 3119 3119 3119 3118 3118 3118 3117 3117 3117 3117 3116 3116 3116 3115 3115 3115 3114 3114 3113 3113 3112 3111 3111 3110 3110 3109 3108 3108 3108 3108 3108 3107 3107 3106 3106 3105 3105
3116 3116 3116 3117 3117 3117 3117 3117 3117 3117 3117 3117 3117 3117 3117 3117 3116 3116 3116 3116 3115 3115 3115 3114 3114 3114 3114 3113 3113 3112 3112 3111 3111 3110 3110 3109 3109 3108 3107 3107 3106 3105 3105 3104 3104 3104 3104 3104 3103 3102 3102 3102
3114 3114 3114 3115 3115 3115 3115 3115 3115 3115 3115 3115 3114 3114 3114 3114 3114 3114 3113 3113 3113 3112 3112 3112 3112 3111 3111 3111 3110 3110 3109 3108 3108 3107 3107 3106 3105 3105 3104 3103 3103 3102 3101 3101 3100 3100 3100 3100 3100 3099 3098 3098
3111 3112 3112 3112 3112 3112 3112 3112 3112 3112 3112 3112 3112 3112 3112 3112 3111 3111 3111 3111 3110 3110 3110 3110 3109 3109 3108 3108 3107 3107 3106 3105 3105 3104 3104 3103 3102 3101 3101 3100 3099 3099 3098 3097 3096 3096 3096 3096 3096 3096 3095 3094
3109 3109 3109 3109 3109 3109 3109 3109 3108 3108 3108 3109 3109 3109 3109 3109 3109 3109 3108 3108 3108 3107 3107 3107 3106 3106 3105 3105 3104 3103 3103 3102 3102 3101 3100 3099 3099 3098 3097 3096 3095 3095 3095 3094 3093 3092 3091 3091 3092 3092 3091 3091
3107 3106 3106 3106 3106 3105 3105 3105 3105 3105 3106 3106 3106 3106 3106 3106 3106 3106 3105 3105 3105 3104 3104 3104 3103 3103 3102 3101 3101 3100 3099 3099 3098 3098 3097 3096 3095 3094 3093 3092 3091 3091 3090 3090 3089 3089 3088 3087 3087 3087 3087 3087
3103 3103 3103 3102 3102 3102 3102 3103 3103 3103 3103 3103 3103 3103 3103 3103 3103 3103 3102 3102 3101 3101 3101 3100 3100 3099 3099 3098 3097 3096 3096 3095 3094 3094 3093 3092 3091 3090 3089 3088 3087 3086 3086 3085 3085 3084 3084 3083 3083 3083 3083 3083
3099 3099 3100 3100 3100 3100 3100 3100 3100 3100 3100 3100 3100 3100 3100 3099 3099 3099 3098 3098 3098 3097 3097 3097 3096 3095 3095 3094 3093 3092 3091 3091 3090 3089 3088 3087 3086 3086 3085 3084 3083 3082 3081 3080 3080 3079 3079 3079 3078 3078 3078 3078
3097 3097 3097 3098 3097 3097 3098 3097 3098 3097 3097 3097 3097 3096 3096 3096 3095 3095 3095 3094 3094 3094 3093 3092 3092 3091 3090 3089 3088 3088 3087 3086 3085 3084 3083 3082 3081 3081 3080 3079 3078 3077 3077 3076 3075 3074 3074 3074 3074 3074 3074 3074
3094 3095 3095 3095 3095 3095 3095 3095 3095 3094 3094 3094 3093 3093 3093 3092 3091 3091 3091 3090 3090 3089 3089 3088 3087 3087 3086 3085 3084 3083 3082 3081 3080 3079 3078 3077 3076 3075 3075 3074 3073 3072 3072 3071 3070 3069 3069 3069 3069 3069 3069 3069
3091 3092 3092 3092 3092 3092 3092 3092 3092 3091 3091 3091 3090 3090 3089 3088 3088 3087 3086 3086 3085 3085 3084 3083 3083 3082 3081 3080 3079 3078 3077 3076 3074 3073 3072 3071 3071 3070 3069 3069 3068 3067 3066 3066 3065 3064 3064 3064 3064 3064 3064 3064
3089 3089 3089 3089 3089 3089 3089 3089 3089 3088 3088 3087 3087 3086 3085 3084 3084 3083 3082 3081 3081 3080 3079 3078 3078 3077 3076 3075 3074 3073 3071 3070 3069 3068 3067 3066 3065 3064 3063 3063 3062 3061 3061 3060 3060 3059 3059 3059 3059 3059 3059 3059
3087 3087 3087 3087 3087 3087 3086 3086 3085 3085 3084 3083 3083 3082 3081 3080 3079 3079 3078 3077 3076 3075 3074 3073 3073 3072 3071 3070 3068 3067 3066 3065 3064 3062 3061 3060 3059 3059 3058 3057 3056 3056 3055 3055 3054 3054 3054 3054 3054 3054 3054 3054
3084 3084 3084 3084 3084 3083 3083 3082 3082 3081 3080 3080 3079 3078 3077 3076 3075 3074 3073 3072 3071 3070 3069 3068 3068 3067 3065 3064 3063 3062 3060 3059 3058 3057 3056 3055 3054 3053 3052 3051 3051 3050 3049 3049 3049 3049 3049 3049 3049 3049 3049 3049
3081 3081 3081 3081 3080 3080 3079 3079 3078 3077 3077 3076 3075 3074 3073 3071 3070 3069 3068 3067 3066 3065 3064 3063 3062 3061 3060 3058 3057 3056 3055 3054 3053 3052 3051 3050 3048 3048 3047 3046 3045 3045 3044 3043 3044 3044 3044 3044 3043 3044 3044 3044
3078 3078 3078 3077 3077 3076 3076 3075 3074 3074 3073 3072 3070 3069 3068 3066 3065 3064 3063 3062 3061 3060 3059 3058 3057 3056 3054 3052 3051 3050 3049 3048 3047 3046 3045 3044 3043 3042 3041 3041 3040 3039 3038 3038 3038 3039 3038 3038 3038 3039 3039 3039
3075 3075 3074 3074 3074 3073 3072 3071 3071 3070 3068 3067 3066 3064 3063 3062 3061 3059 3058 3057 3056 3055 3054 3052 3051 3050 3048 3046 3045 3044 3043 3042 3041 3039 3038 3038 3037 3035 3035 3035 3034 3034 3033 3032 3033 3033 3033 3032 3032 3033 3034 3034
3071 3071 3071 3070 3070 3069 3068 3068 3066 3065 3064 3063 3061 3060 3059 3057 3056 3055 3053 3052 3050 3049 3047 3046 3044 3043 3042 3040 3039 3038 3037 3036 3034 3033 3031 3030 3030 3029 3028 3028 3028 3027 3027 3026 3027 3027 3027 3027 3027 3028 3028 3028
3068 3067 3067 3067 3066 3065 3064 3063 3062 3061 3059 3058 3057 3055 3054 3053 3051 3050 3049 3047 3045 3043 3041 3040 3038 3037 3035 3034 3032 3031 3031 3030 3028 3026 3025 3023 3022 3022 3021 3021 3021 3020 3019 3019 3020 3021 3021 3021 3021 3021 3022 3022
3064 3064 3063 3063 3062 3061 3060 3059 3058 3056 3055 3054 3052 3051 3049 3048 3046 3045 3043 3041 3039 3037 3035 3033 3032 3030 3029 3027 3026 3025 3024 3023 3022 3020 3018 3017 3016 3015 3014 3015 3015 3013 3012 3012 3012 3013 3014 3015 3015 3015 3015 3016
3060 3060 3059 3058 3058 3057 3055 3054 3052 3051 3050 3049 3047 3046 3044 3043 3042 3040 3037 3035 3032 3030 3028 3027 3025 3024 3022 3021 3019 3018 3017 3016 3015 3014 3012 3010 3009 3009 3008 3008 3008 3007 3005 3005 3005 3005 3006 3008 3009 3009 3009 3009
3056 3055 3055 3054 3052 3051 3050 3048 3047 3045 3044 3043 3042 3040 3038 3037 3035 3032 3030 3028 3026 3024 3022 3020 3019 3017 3016 3015 3013 3012 3011 3010 3009 3007 3006 3004 3003 3002 3001 3001 3002 3001 2999 2998 2998 2997 2997 2999 3000 3002 3003 3003
3051 3051 3050 3049 3047 3045 3044 3042 3041 3040 3038 3037 3035 3034 3032 3029 3027 3025 3023 3022 3019 3017 3016 3014 3012 3011 3010 3009 3007 3006 3004 3004 3002 3001 2999 2998 2996 2995 2994 2995 2995 2995 2993 2992 2992 2990 2990 2990 2991 2993 2995 2996
3047 3046 3045 3044 3042 3041 3039 3038 3036 3035 3034 3032 3030 3028 3026 3024 3022 3020 3018 3015 3013 3011 3009 3008 3006 3005 3003 3002 3001 2999 2998 2997 2996 2995 2993 2991 2990 2989 2987 2987 2988 2988 2988 2987 2986 2984 2983 2983 2982 2983 2986 2987
3042 3040 3039 3038 3036 3035 3034 3032 3031 3029 3027 3026 3024 3022 3020 3018 3016 3013 3011 3009 3007 3005 3003 3002 3000 2998 2997 2996 2995 2993 2992 2990 2989 2988 2987 2985 2984 2982 2981 2980 2979 2981 2981 2980 2979 2978 2978 2977 2975 2975 2977 2978
3037 3035 3033 3032 3030 3028 3027 3025 3024 3022 3020 3017 3016 3014 3013 3011 3009 3006 3004 3002 3000 2998 2997 2995 2994 2992 2991 2989 2988 2987 2985 2984 2983 2982 2981 2980 2978 2976 2975 2973 2972 2973 2974 2973 2972 2972 2972 2970 2969 2968 2968 2969